• In Schweiz
  • Länderverzeichnis
  • Für 7 Tage
  • Wassertemperatur
  • Satellitenkarten
  • Wetterkarte
  • Widgets
  • user-avatar
    Anmelden

    Stündliche Wetter Krasnyy Kolos

    Heute, 25 September, Dienstag

    Zeit Temperatur Niederschläge Wind Luftdruck Luftfeuchtigkeit
    00:00 +20°C° 0 mm 5 m/S 749 mmHg 71%
    01:00 +20°C° 0 mm 5 m/S 748 mmHg 74%
    02:00 +19°C° 0 mm 5 m/S 748 mmHg 76%
    03:00 +19°C° 0 mm 5 m/S 748 mmHg 79%
    04:00 +19°C° 0 mm 5 m/S 748 mmHg 80%
    05:00 +19°C° 0 mm 5 m/S 748 mmHg 81%
    06:00 +19°C° 0 mm 5 m/S 748 mmHg 82%
    07:00 +19°C° 0.2 mm 5 m/S 748 mmHg 81%
    08:00 +17°C° 0.2 mm 5 m/S 748 mmHg 79%
    09:00 +17°C° 0.2 mm 6 m/S 748 mmHg 77%
    10:00 +16°C° 0.2 mm 6 m/S 749 mmHg 75%
    11:00 +15°C° 0.2 mm 6 m/S 750 mmHg 74%
    12:00 +14°C° 0.2 mm 6 m/S 750 mmHg 72%
    13:00 +13°C° 0.2 mm 5 m/S 751 mmHg 72%
    14:00 +13°C° 0.2 mm 5 m/S 751 mmHg 72%
    15:00 +13°C° 0.2 mm 4 m/S 752 mmHg 72%
    16:00 +13°C° 0.1 mm 4 m/S 752 mmHg 72%
    17:00 +12°C° 0.1 mm 3 m/S 753 mmHg 71%
    18:00 +12°C° 0.1 mm 3 m/S 753 mmHg 71%
    19:00 +12°C° 0.1 mm 3 m/S 753 mmHg 72%
    20:00 +12°C° 0.1 mm 3 m/S 754 mmHg 73%
    21:00 +11°C° 0.1 mm 3 m/S 754 mmHg 74%
    22:00 +11°C° 0 mm 3 m/S 755 mmHg 75%
    23:00 +11°C° 0 mm 3 m/S 755 mmHg 76%

    Morgen, 26 September, Mittwoch

    Zeit Temperatur Niederschläge Wind Luftdruck Luftfeuchtigkeit
    00:00 +10°C° 0 mm 3 m/S 755 mmHg 77%
    01:00 +10°C° 0 mm 3 m/S 755 mmHg 78%
    02:00 +9°C° 0 mm 3 m/S 756 mmHg 79%
    03:00 +9°C° 0 mm 2 m/S 756 mmHg 80%
    04:00 +9°C° 0 mm 2 m/S 756 mmHg 81%
    05:00 +8°C° 0 mm 2 m/S 757 mmHg 83%
    06:00 +8°C° 0 mm 2 m/S 757 mmHg 84%
    07:00 +9°C° 0 mm 2 m/S 757 mmHg 78%
    08:00 +10°C° 0 mm 3 m/S 758 mmHg 72%
    09:00 +12°C° 0 mm 3 m/S 759 mmHg 66%
    10:00 +13°C° 0 mm 3 m/S 759 mmHg 60%
    11:00 +14°C° 0 mm 3 m/S 759 mmHg 55%
    12:00 +16°C° 0 mm 3 m/S 759 mmHg 50%
    13:00 +16°C° 0.1 mm 3 m/S 759 mmHg 49%
    14:00 +16°C° 0.1 mm 3 m/S 759 mmHg 48%
    15:00 +16°C° 0.1 mm 3 m/S 759 mmHg 46%
    16:00 +16°C° 0.1 mm 3 m/S 760 mmHg 49%
    17:00 +14°C° 0.1 mm 3 m/S 760 mmHg 51%
    18:00 +14°C° 0.1 mm 2 m/S 760 mmHg 53%
    19:00 +14°C° 0 mm 2 m/S 760 mmHg 55%
    20:00 +13°C° 0 mm 2 m/S 761 mmHg 57%
    21:00 +12°C° 0 mm 2 m/S 761 mmHg 59%
    22:00 +10°C° 0 mm 2 m/S 761 mmHg 60%
    23:00 +10°C° 0 mm 2 m/S 761 mmHg 60%

    übermorgen, 27 September, Donnerstag

    Zeit Temperatur Niederschläge Wind Luftdruck Luftfeuchtigkeit
    00:00 +9°C° 0 mm 2 m/S 762 mmHg 60%
    01:00 +9°C° 0 mm 2 m/S 762 mmHg 61%
    02:00 +9°C° 0 mm 2 m/S 762 mmHg 61%
    03:00 +8°C° 0 mm 2 m/S 762 mmHg 62%
    04:00 +8°C° 0 mm 2 m/S 762 mmHg 62%
    05:00 +8°C° 0 mm 2 m/S 762 mmHg 63%
    06:00 +8°C° 0 mm 1 m/S 762 mmHg 63%
    07:00 +10°C° 0 mm 1 m/S 762 mmHg 58%
    08:00 +11°C° 0 mm 1 m/S 762 mmHg 52%
    09:00 +13°C° 0 mm 1 m/S 762 mmHg 47%
    10:00 +14°C° 0 mm 2 m/S 762 mmHg 43%
    11:00 +14°C° 0 mm 3 m/S 761 mmHg 39%
    12:00 +17°C° 0 mm 4 m/S 761 mmHg 35%
    13:00 +17°C° 0 mm 4 m/S 761 mmHg 34%
    14:00 +17°C° 0 mm 4 m/S 760 mmHg 32%
    15:00 +17°C° 0 mm 5 m/S 760 mmHg 30%
    16:00 +16°C° 0 mm 5 m/S 759 mmHg 32%
    17:00 +15°C° 0 mm 4 m/S 759 mmHg 34%
    18:00 +14°C° 0 mm 4 m/S 759 mmHg 36%
    19:00 +13°C° 0 mm 4 m/S 759 mmHg 39%
    20:00 +12°C° 0 mm 3 m/S 759 mmHg 41%
    21:00 +12°C° 0 mm 3 m/S 760 mmHg 44%
    22:00 +11°C° 0 mm 3 m/S 759 mmHg 44%
    23:00 +11°C° 0 mm 3 m/S 759 mmHg 44%

    28 September, Freitag

    Zeit Temperatur Niederschläge Wind Luftdruck Luftfeuchtigkeit
    00:00 +11°C° 0 mm 3 m/S 759 mmHg 44%
    01:00 +11°C° 0 mm 3 m/S 759 mmHg 44%
    02:00 +11°C° 0 mm 3 m/S 759 mmHg 43%
    03:00 +10°C° 0 mm 3 m/S 758 mmHg 43%
    04:00 +10°C° 0 mm 3 m/S 758 mmHg 44%
    05:00 +10°C° 0 mm 3 m/S 758 mmHg 45%
    06:00 +10°C° 0 mm 2 m/S 758 mmHg 47%
    07:00 +12°C° 0 mm 2 m/S 758 mmHg 45%
    08:00 +14°C° 0 mm 2 m/S 758 mmHg 43%
    09:00 +15°C° 0 mm 2 m/S 759 mmHg 42%
    10:00 +17°C° 0 mm 3 m/S 758 mmHg 41%
    11:00 +18°C° 0 mm 3 m/S 758 mmHg 39%
    12:00 +20°C° 0 mm 3 m/S 758 mmHg 38%
    13:00 +20°C° 0 mm 3 m/S 758 mmHg 38%
    14:00 +21°C° 0 mm 3 m/S 757 mmHg 37%
    15:00 +21°C° 0 mm 3 m/S 757 mmHg 37%
    16:00 +20°C° 0 mm 3 m/S 756 mmHg 39%
    17:00 +19°C° 0 mm 3 m/S 756 mmHg 42%
    18:00 +18°C° 0 mm 2 m/S 756 mmHg 44%
    19:00 +17°C° 0 mm 2 m/S 755 mmHg 46%
    20:00 +16°C° 0 mm 2 m/S 755 mmHg 48%
    21:00 +16°C° 0 mm 1 m/S 755 mmHg 49%
    22:00 +15°C° 0 mm 1 m/S 755 mmHg 51%
    23:00 +15°C° 0 mm 1 m/S 755 mmHg 52%

    29 September, Samstag

    Zeit Temperatur Niederschläge Wind Luftdruck Luftfeuchtigkeit
    00:00 +14°C° 0 mm 1 m/S 754 mmHg 54%
    01:00 +14°C° 0 mm 1 m/S 754 mmHg 55%
    02:00 +14°C° 0 mm 1 m/S 754 mmHg 56%
    03:00 +13°C° 0 mm 1 m/S 754 mmHg 57%
    04:00 +13°C° 0 mm 1 m/S 754 mmHg 58%
    05:00 +13°C° 0 mm 1 m/S 754 mmHg 59%
    06:00 +13°C° 0 mm 1 m/S 754 mmHg 60%
    07:00 +14°C° 0 mm 1 m/S 754 mmHg 54%
    08:00 +16°C° 0 mm 1 m/S 754 mmHg 49%
    09:00 +19°C° 0 mm 1 m/S 753 mmHg 43%
    10:00 +20°C° 0 mm 1 m/S 753 mmHg 40%
    11:00 +22°C° 0 mm 1 m/S 753 mmHg 36%
    12:00 +24°C° 0 mm 1 m/S 753 mmHg 32%
    13:00 +24°C° 0 mm 1 m/S 752 mmHg 31%
    14:00 +25°C° 0 mm 1 m/S 752 mmHg 30%
    15:00 +25°C° 0 mm 1 m/S 752 mmHg 29%
    16:00 +24°C° 0 mm 1 m/S 751 mmHg 31%
    17:00 +23°C° 0 mm 1 m/S 751 mmHg 33%
    18:00 +22°C° 0 mm 1 m/S 751 mmHg 35%
    19:00 +22°C° 0 mm 1 m/S 751 mmHg 36%
    20:00 +20°C° 0 mm 2 m/S 752 mmHg 36%
    21:00 +20°C° 0 mm 2 m/S 752 mmHg 36%
    22:00 +20°C° 0 mm 2 m/S 752 mmHg 39%
    23:00 +19°C° 0 mm 3 m/S 751 mmHg 42%

    30 September, Sonntag

    Zeit Temperatur Niederschläge Wind Luftdruck Luftfeuchtigkeit
    00:00 +19°C° 0 mm 3 m/S 751 mmHg 44%
    01:00 +18°C° 0 mm 3 m/S 751 mmHg 48%
    02:00 +18°C° 0 mm 3 m/S 751 mmHg 51%
    03:00 +18°C° 0 mm 3 m/S 752 mmHg 54%
    04:00 +18°C° 0 mm 3 m/S 752 mmHg 56%
    05:00 +17°C° 0 mm 3 m/S 752 mmHg 58%
    06:00 +17°C° 0 mm 4 m/S 752 mmHg 60%
    07:00 +18°C° 0 mm 4 m/S 753 mmHg 60%
    08:00 +17°C° 0 mm 5 m/S 753 mmHg 61%
    09:00 +17°C° 0 mm 5 m/S 753 mmHg 61%
    10:00 +19°C° 0.1 mm 6 m/S 753 mmHg 57%
    11:00 +21°C° 0.1 mm 6 m/S 753 mmHg 54%
    12:00 +22°C° 0.1 mm 6 m/S 754 mmHg 51%
    13:00 +22°C° 0.1 mm 6 m/S 754 mmHg 49%
    14:00 +22°C° 0.1 mm 6 m/S 753 mmHg 48%
    15:00 +23°C° 0.1 mm 6 m/S 753 mmHg 46%
    16:00 +22°C° 0 mm 5 m/S 754 mmHg 48%
    17:00 +21°C° 0 mm 5 m/S 754 mmHg 51%
    18:00 +20°C° 0 mm 5 m/S 754 mmHg 53%
    19:00 +19°C° 0 mm 5 m/S 754 mmHg 56%
    20:00 +17°C° 0 mm 6 m/S 754 mmHg 59%
    21:00 +16°C° 0 mm 6 m/S 755 mmHg 62%
    22:00 +15°C° 0.1 mm 6 m/S 755 mmHg 64%
    23:00 +15°C° 0.1 mm 6 m/S 755 mmHg 66%
    Mehr zeigen